Location: Unspecified
(58.7730°N, 5.8460°E)
Time: 08:59:55
(UTC+01:00)

Cosmos 1674 - Visible Passes

Search period start: 20 January 2017 00:00
Search period end: 30 January 2017 00:00
Orbit: 500 x 522 km, 82.5° (Epoch: 19 January)

Date Brightness Start Highest point End Pass type
(mag) Time Alt. Az. Time Alt. Az. Time Alt. Az.
20 Jan 3.6 17:27:04 10° SSE 17:30:24 29° E 17:33:47 10° NNE visible
20 Jan 4.0 19:02:17 10° SW 19:05:57 41° WNW 19:09:40 10° N visible
21 Jan 3.7 18:45:52 10° SSW 18:49:36 48° WNW 18:53:24 10° N visible
21 Jan 6.0 20:25:43 10° WNW 20:26:16 10° NW 20:26:48 10° NW visible
22 Jan 3.4 18:29:28 10° SSW 18:33:16 57° WNW 18:37:08 10° N visible
22 Jan 5.8 20:08:23 10° WNW 20:09:49 12° NW 20:11:15 10° NNW visible
23 Jan 3.1 18:13:06 10° SSW 18:16:57 68° WNW 18:20:51 10° N visible
23 Jan 5.7 19:51:27 10° W 19:53:23 13° NW 19:55:20 10° NNW visible
24 Jan 2.8 17:56:46 10° SSW 18:00:38 81° WNW 18:04:33 10° NNE visible
24 Jan 5.6 19:34:40 10° W 19:36:58 15° NW 19:39:17 10° NNW visible
25 Jan 2.7 17:40:28 10° S 17:44:19 85° ESE 17:48:14 10° NNE visible
25 Jan 5.5 19:17:56 10° W 19:20:32 17° WNW 19:23:10 10° NNW visible
26 Jan 2.7 17:24:10 10° S 17:28:01 72° E 17:31:55 10° NNE visible
26 Jan 5.3 19:01:16 10° WSW 19:04:08 19° WNW 19:07:01 10° N visible
27 Jan 5.1 18:44:39 10° WSW 18:47:44 22° WNW 18:50:50 10° N visible
28 Jan 4.9 18:28:05 10° WSW 18:31:21 25° WNW 18:34:37 10° N visible
29 Jan 4.7 18:11:33 10° SW 18:14:57 29° WNW 18:18:24 10° N visible
